Wind_Speed
5 6 6 7 7 7 7 7 8 8 8 8 7 7 7 7 8 8 7 7 7 7 7 7 7 6 6 6 6 6 6 5 5 5 5 4 4 4 4 3 3 3 3
6 6 6 7 7 8 8 8 8 9 9 9 9 8 8 8 8 9 9 8 8 8 8 8 8 8 7 7 7 7 7 6 6 6 6 5 5 5 5 4 4 4 4
6 6 7 7 8 8 9 9 9 9 9 10 10 9 9 9 9 9 9 9 9 9 9 8 9 9 8 8 8 8 8 7 6 6 6 6 6 5 5 5 5 5 5
6 7 8 8 8 8 9 9 9 9 9 10 10 10 9 10 11 10 10 10 9 10 10 9 8 8 9 9 9 9 9 8 7 7 7 6 6 6 6 6 6 6 5
5 6 6 7 7 8 8 9 10 10 10 10 10 10 10 10 11 11 11 10 10 10 10 11 10 9 9 10 10 9 9 9 9 8 8 7 7 7 7 7 7 7 7
5 5 5 6 6 7 7 8 9 9 10 10 10 10 10 10 10 10 10 10 10 10 9 10 10 9 9 9 9 9 9 10 9 9 9 8 8 8 8 7 7 8 8
4 5 5 6 6 7 7 8 8 9 10 9 9 10 10 10 10 10 10 10 10 10 10 10 10 9 9 9 9 9 8 9 10 10 10 9 9 9 9 8 8 8 8
4 5 5 6 6 7 7 7 8 8 9 9 9 10 10 10 10 10 10 10 10 10 10 10 11 10 10 9 9 9 9 9 9 10 10 10 10 10 9 9 9 9 9
5 5 5 6 6 6 7 7 7 7 8 9 9 10 10 10 10 10 10 10 9 10 10 10 10 10 10 10 10 10 10 9 9 10 10 10 11 11 10 10 11 11 10
5 5 4 5 6 5 6 6 6 6 7 8 8 9 9 10 10 11 11 10 10 10 10 10 10 10 10 10 10 10 11 10 10 9 10 10 11 11 11 11 12 11 11
4 4 4 5 5 5 5 6 6 6 6 7 7 8 9 9 10 11 11 11 11 11 10 10 11 11 11 11 10 10 10 11 10 10 10 10 11 11 11 11 11 12 12
4 4 4 4 4 4 4 5 5 6 6 7 6 7 8 8 9 10 11 11 11 11 11 11 11 11 11 11 11 11 11 11 11 11 11 11 11 11 11 11 11 11 11
3 3 3 3 3 3 3 4 4 4 5 5 5 6 6 7 8 8 10 11 11 11 11 10 10 10 11 11 11 11 10 11 10 10 10 10 10 11 11 10 11 11 12
3 3 3 3 3 3 2 2 3 3 4 4 5 5 6 6 7 8 8 9 10 10 10 10 10 10 10 10 10 10 10 10 10 10 10 11 11 11 11 11 11 11 12
3 3 3 3 2 3 3 3 3 4 4 5 5 5 5 6 7 8 8 8 9 9 9 10 9 9 10 9 10 10 10 10 10 10 10 10 10 10 10 10 11 11 12
3 3 4 4 4 3 3 3 4 4 5 5 5 5 6 6 7 8 8 8 8 8 9 9 10 10 9 9 9 10 10 10 10 10 10 10 10 10 10 10 10 11 11
3 4 4 4 5 4 4 4 5 5 5 5 5 6 6 6 6 7 7 8 8 8 8 9 9 10 10 9 10 10 10 10 10 10 10 10 11 11 11 10 11 12 11
4 4 5 5 5 6 5 5 5 4 4 5 5 5 5 6 6 6 7 7 7 8 8 9 9 10 10 9 9 9 10 10 10 10 10 10 10 10 10 10 11 11 11
5 5 5 6 6 6 6 6 5 5 5 5 6 6 6 6 6 6 6 7 7 8 8 9 9 9 10 10 9 9 10 10 10 10 10 10 10 11 11 11 11 11 11
5 6 6 6 6 6 6 6 6 6 6 6 6 6 5 5 6 6 7 8 8 8 8 9 9 9 10 10 10 10 10 11 11 10 11 10 10 11 11 12 12 12 12
5 6 6 6 6 6 6 6 6 6 6 6 6 6 6 6 6 7 8 8 8 9 9 9 10 10 10 10 11 11 11 11 12 12 12 12 12 12 12 12 12 12 12
6 6 6 7 7 7 7 6 6 6 6 7 6 6 7 7 7 8 8 8 9 9 9 10 10 10 10 10 10 11 11 12 12 12 12 12 13 13 13 13 13 13 13
6 6 7 7 7 8 8 7 7 7 7 7 7 7 7 8 8 8 8 8 9 9 9 10 10 10 11 11 11 11 11 12 13 13 13 13 14 14 14 14 14 14 14
7 7 8 8 8 8 8 8 8 8 8 8 8 8 8 8 9 9 9 9 10 10 10 11 11 11 11 12 12 12 12 13 13 14 14 14 15 15 15 15 15 15 15
8 8 8 8 9 8 8 9 9 9 9 9 9 9 9 9 9 9 10 10 11 11 12 12 12 12 12 13 13 13 13 14 14 15 15 15 16 16 16 16 16 15 15
8 8 8 9 9 9 9 9 10 10 10 10 10 10 10 10 10 10 10 11 12 12 12 12 12 13 13 14 14 14 14 14 15 15 16 16 16 16 17 17 17 16 16
Wind_Direction
264 261 263 262 258 257 259 259 255 260 260 260 257 252 246 244 241 241 242 243 241 235 233 230 225 224 221 220 217 218 217 220 220 222 219 215 215 219 218 216 216 215 222
266 263 266 266 264 263 261 259 258 259 256 255 255 250 243 243 245 243 243 244 241 237 234 234 232 230 233 234 230 228 227 230 227 227 227 224 227 229 231 237 236 233 235
266 265 265 265 266 264 262 259 258 259 257 253 252 251 245 243 243 244 244 243 239 238 238 237 234 234 237 236 234 235 235 234 233 233 232 228 231 235 242 246 244 243 242
273 269 267 266 267 265 262 258 255 256 256 253 249 247 246 244 242 240 243 243 240 238 237 234 236 240 242 240 240 243 243 241 241 237 235 235 240 246 250 247 242 246 249
280 275 271 270 270 268 264 261 254 253 254 253 250 247 244 244 242 242 243 241 238 236 238 237 237 242 247 244 242 245 244 241 241 239 240 244 246 248 253 251 244 249 252
282 284 282 278 274 271 267 264 259 252 250 250 247 243 242 242 242 243 244 238 237 240 240 240 240 243 247 245 242 245 246 243 243 243 244 247 248 250 258 251 250 253 252
291 291 288 283 279 274 269 265 261 256 251 248 244 242 239 240 242 242 241 239 239 241 240 240 240 243 247 245 243 246 246 245 247 245 244 247 250 252 256 254 255 255 252
297 292 288 283 279 273 268 265 261 260 255 248 245 243 240 241 243 243 242 241 239 239 241 240 239 239 242 244 245 245 249 246 246 243 242 248 250 255 257 254 253 257 258
299 293 290 285 281 278 272 268 263 259 257 251 246 246 244 243 243 240 241 240 241 243 244 241 240 240 240 242 243 245 247 246 248 245 247 251 254 258 258 257 258 259 261
309 301 294 291 286 283 275 270 266 262 261 255 248 247 247 244 242 239 242 240 242 245 246 245 245 244 247 247 248 248 249 248 248 245 248 252 255 258 260 261 261 262 265
318 311 302 295 291 282 278 273 265 264 263 262 256 252 249 248 247 246 246 246 247 245 247 248 247 249 250 250 250 250 251 249 247 248 250 255 257 258 259 261 262 262 262
329 321 309 304 296 284 277 275 268 263 265 264 260 255 251 249 250 247 247 247 247 247 250 249 249 248 248 248 248 250 251 251 249 254 252 255 258 258 258 260 260 263 262
342 333 320 310 300 294 281 273 269 265 265 265 264 262 255 250 247 244 244 244 247 247 248 249 249 247 248 250 250 251 251 248 250 252 250 253 256 259 261 262 263 265 263
348 343 341 331 309 301 294 285 273 271 271 273 269 265 255 247 246 243 244 246 248 250 251 250 251 249 249 251 250 247 248 246 247 250 253 254 257 261 263 263 265 263 263
340 342 346 344 323 308 293 285 278 276 283 284 272 269 261 252 249 247 245 249 252 254 255 252 249 249 251 250 246 246 248 247 249 252 254 257 259 263 264 265 265 265 265
326 331 335 334 326 312 299 293 291 283 282 286 279 270 264 260 260 257 254 253 253 255 254 250 248 251 252 250 249 250 248 249 251 251 252 255 259 263 265 266 265 267 266
313 318 326 328 326 317 311 305 298 289 282 284 285 279 271 266 263 260 255 254 254 254 256 252 250 252 253 251 251 252 249 250 252 251 253 254 257 262 265 265 265 268 269
312 313 318 322 326 324 314 311 313 296 294 291 290 286 278 272 269 268 263 260 256 255 256 253 253 254 254 253 254 254 249 248 250 251 254 255 257 259 261 263 267 268 269
312 313 315 316 320 324 320 315 315 300 295 294 292 289 284 279 273 269 263 263 259 257 257 258 257 256 256 254 254 254 250 249 250 252 252 254 258 258 260 261 264 268 270
311 313 314 313 315 316 316 311 310 305 295 296 293 288 282 279 275 273 269 268 262 258 259 261 262 259 254 254 255 253 250 251 250 253 254 255 257 259 262 265 266 268 270
310 311 314 314 313 313 312 309 307 309 303 300 294 287 283 283 278 276 273 273 264 260 260 259 259 258 256 256 255 253 253 254 252 253 255 256 259 263 265 267 269 270 271
309 308 311 313 312 311 309 307 305 306 306 304 296 285 280 282 280 279 275 272 267 265 263 260 260 260 259 258 257 255 256 257 255 254 257 260 262 264 267 269 270 270 271
308 306 307 306 306 308 305 302 298 298 299 299 296 294 290 285 281 281 279 273 271 272 268 264 263 263 262 260 258 255 256 257 258 257 259 262 263 263 266 269 269 270 272
307 306 302 300 300 301 299 297 296 296 297 296 294 291 288 286 283 281 279 277 276 274 273 270 267 264 263 261 259 260 261 262 261 259 260 262 264 265 265 266 269 271 273
304 302 300 299 302 301 296 294 294 294 293 293 292 289 286 285 282 282 281 279 278 275 273 272 269 264 262 262 262 262 264 265 264 263 262 264 265 267 266 266 269 271 272
303 302 301 300 302 303 301 298 295 294 292 290 290 290 288 286 284 282 282 281 278 275 274 273 271 266 265 266 266 264 264 265 266 263 262 264 267 267 267 268 268 268 269
Height
5872 5872 5872 5872 5872 5873 5873 5873 5873 5873 5873 5873 5873 5874 5874 5874 5875 5875 5876 5876 5876 5877 5877 5878 5878 5878 5879 5879 5879 5880 5880 5880 5881 5881 5881 5881 5881 5882 5882 5882 5882 5882 5882
5871 5871 5871 5871 5871 5871 5871 5872 5872 5872 5872 5872 5872 5872 5873 5873 5873 5873 5874 5874 5875 5875 5876 5876 5877 5878 5878 5878 5878 5879 5879 5879 5879 5880 5880 5881 5881 5881 5881 5881 5881 5881 5881
5869 5869 5869 5869 5869 5869 5870 5870 5870 5870 5870 5870 5871 5871 5871 5871 5872 5872 5873 5873 5873 5874 5874 5875 5876 5876 5877 5877 5877 5878 5878 5878 5878 5879 5879 5880 5880 5880 5880 5880 5880 5881 5881
5868 5867 5867 5867 5868 5868 5868 5868 5868 5869 5868 5868 5869 5869 5869 5869 5870 5871 5871 5871 5872 5872 5873 5873 5874 5875 5875 5876 5876 5876 5877 5877 5877 5878 5878 5879 5879 5879 5879 5879 5879 5880 5880
5866 5866 5866 5866 5866 5866 5866 5866 5867 5867 5867 5867 5866 5866 5867 5867 5868 5869 5869 5870 5870 5870 5871 5872 5873 5873 5874 5874 5875 5875 5875 5876 5876 5876 5877 5878 5878 5878 5878 5878 5878 5879 5879
5865 5864 5864 5864 5864 5864 5864 5864 5864 5864 5864 5864 5864 5864 5865 5865 5866 5867 5867 5868 5868 5869 5869 5870 5871 5872 5872 5872 5873 5873 5874 5874 5875 5875 5876 5876 5877 5877 5877 5877 5877 5877 5877
5863 5863 5863 5863 5862 5862 5862 5862 5862 5862 5862 5862 5863 5863 5863 5864 5864 5865 5865 5866 5866 5867 5867 5868 5869 5870 5870 5871 5871 5872 5872 5873 5873 5873 5874 5875 5875 5875 5876 5876 5876 5876 5876
5862 5862 5861 5861 5861 5861 5860 5861 5860 5860 5860 5861 5861 5861 5862 5862 5863 5863 5864 5864 5864 5865 5866 5866 5867 5868 5869 5869 5870 5870 5871 5871 5871 5872 5872 5873 5873 5874 5874 5874 5874 5874 5874
5861 5861 5860 5860 5859 5859 5859 5859 5859 5858 5859 5859 5859 5859 5860 5860 5861 5861 5862 5862 5863 5863 5864 5865 5865 5866 5867 5867 5868 5868 5869 5869 5870 5870 5871 5871 5871 5872 5872 5872 5872 5872 5873
5860 5859 5859 5858 5858 5857 5857 5857 5857 5857 5857 5857 5857 5858 5858 5858 5859 5860 5860 5860 5861 5861 5862 5863 5863 5864 5865 5865 5866 5866 5867 5867 5868 5868 5869 5869 5869 5869 5870 5870 5870 5870 5870
5859 5858 5857 5857 5856 5856 5856 5855 5855 5855 5855 5855 5855 5856 5856 5856 5857 5857 5858 5858 5859 5859 5860 5861 5861 5862 5863 5863 5864 5864 5865 5865 5866 5866 5867 5867 5867 5867 5867 5867 5868 5868 5868
5858 5857 5856 5855 5855 5854 5854 5854 5854 5854 5854 5854 5854 5854 5854 5854 5855 5855 5856 5856 5857 5857 5858 5858 5859 5860 5860 5861 5861 5862 5862 5863 5863 5864 5864 5865 5865 5865 5865 5865 5865 5865 5865
5857 5856 5855 5854 5854 5853 5853 5853 5852 5852 5852 5852 5852 5852 5852 5853 5853 5853 5854 5854 5854 5855 5855 5856 5857 5857 5858 5858 5859 5859 5860 5860 5861 5861 5862 5862 5862 5862 5862 5863 5863 5863 5863
5856 5855 5854 5853 5853 5852 5852 5851 5851 5851 5851 5850 5850 5850 5851 5851 5851 5851 5852 5852 5852 5853 5853 5854 5854 5855 5855 5856 5857 5857 5857 5858 5858 5859 5859 5860 5860 5860 5860 5860 5860 5860 5860
5855 5855 5854 5853 5852 5851 5851 5850 5850 5849 5849 5849 5849 5849 5849 5849 5849 5849 5850 5850 5850 5851 5851 5852 5852 5853 5853 5854 5854 5855 5855 5856 5856 5856 5857 5857 5857 5857 5857 5857 5857 5857 5857
5855 5854 5853 5852 5851 5850 5850 5849 5849 5848 5848 5848 5847 5847 5847 5847 5847 5847 5848 5848 5848 5849 5849 5850 5850 5851 5851 5851 5852 5852 5853 5853 5854 5854 5854 5854 5855 5855 5854 5854 5854 5854 5854
5854 5853 5852 5851 5850 5849 5848 5848 5847 5847 5846 5846 5846 5845 5845 5845 5845 5845 5845 5846 5846 5847 5847 5847 5848 5848 5849 5849 5850 5850 5850 5851 5851 5851 5852 5852 5852 5852 5852 5852 5852 5851 5851
5853 5852 5851 5850 5849 5848 5847 5847 5846 5845 5845 5844 5844 5844 5843 5843 5843 5843 5843 5844 5844 5845 5845 5845 5846 5846 5847 5847 5847 5848 5848 5848 5849 5849 5849 5849 5849 5849 5849 5849 5849 5849 5848
5851 5851 5850 5849 5848 5847 5846 5845 5844 5844 5843 5843 5842 5842 5842 5841 5841 5841 5841 5842 5842 5842 5843 5843 5843 5844 5844 5845 5845 5845 5845 5846 5846 5846 5846 5847 5847 5847 5847 5846 5846 5846 5845
5850 5849 5848 5848 5847 5846 5845 5844 5843 5842 5842 5841 5840 5840 5840 5839 5839 5839 5839 5839 5839 5840 5840 5840 5841 5841 5841 5842 5842 5842 5843 5843 5843 5843 5844 5844 5844 5844 5844 5843 5843 5843 5843
5849 5848 5847 5846 5845 5844 5843 5842 5841 5840 5840 5839 5838 5838 5838 5837 5837 5837 5837 5837 5837 5837 5837 5838 5838 5838 5838 5839 5839 5840 5840 5840 5840 5840 5841 5841 5841 5841 5841 5841 5840 5840 5840
5847 5846 5845 5845 5844 5843 5842 5841 5840 5839 5838 5837 5836 5836 5836 5835 5835 5835 5835 5834 5834 5835 5835 5835 5835 5835 5835 5835 5836 5836 5836 5837 5837 5837 5837 5838 5838 5838 5838 5837 5837 5837 5837
5846 5845 5844 5843 5842 5841 5840 5839 5838 5837 5836 5835 5835 5834 5833 5833 5833 5832 5832 5832 5832 5832 5832 5832 5832 5832 5832 5832 5832 5833 5833 5833 5833 5834 5834 5834 5834 5834 5834 5834 5834 5833 5833
5844 5843 5842 5841 5840 5839 5838 5837 5836 5835 5834 5833 5833 5832 5831 5831 5830 5830 5829 5829 5829 5829 5829 5829 5829 5828 5829 5829 5829 5829 5830 5830 5830 5830 5830 5830 5830 5830 5830 5830 5830 5829 5829
5842 5841 5840 5839 5837 5836 5835 5834 5833 5833 5832 5831 5830 5830 5829 5828 5827 5827 5827 5826 5826 5826 5826 5825 5825 5825 5825 5825 5825 5825 5825 5825 5826 5826 5826 5826 5826 5826 5825 5825 5825 5825 5825
5840 5838 5837 5836 5835 5834 5833 5832 5831 5830 5829 5828 5828 5827 5826 5825 5825 5824 5823 5823 5823 5822 5822 5822 5821 5821 5821 5821 5821 5821 5821 5821 5821 5821 5821 5821 5821 5821 5821 5821 5821 5821 5821